Theta_e
332 333 336 337 336 336 335 334 334 337 340 332 335 337 338 341 341 340 344 342 340 342 343 339 338 334 332 335 339 341 338 336 335 329 328 331 337 339 339 340 341 344 343
332 335 337 336 337 336 337 336 337 339 341 338 339 339 338 342 340 339 339 345 345 343 343 339 335 333 334 339 339 337 332 329 334 330 326 325 331 338 338 337 340 337 340
329 333 336 337 338 337 339 338 339 339 341 342 343 340 339 340 342 340 344 346 347 345 340 339 333 332 335 337 337 337 332 336 337 334 332 326 325 331 333 333 336 336 334
329 329 335 337 338 340 341 340 340 340 342 343 341 339 336 334 337 341 343 345 349 346 343 338 336 337 339 336 339 350 346 343 337 339 337 333 333 328 318 329 333 336 338
332 327 333 336 339 341 338 341 341 340 343 342 341 339 335 335 338 341 342 341 344 345 343 342 341 340 341 340 342 346 345 346 343 341 334 331 332 327 322 321 326 333 338
333 334 333 335 337 335 339 343 340 340 344 342 339 339 338 338 338 340 341 339 341 344 344 344 342 341 344 346 345 348 346 344 344 345 341 334 334 330 327 325 323 325 331
332 332 332 331 332 333 339 342 340 338 342 344 342 340 339 340 338 339 341 339 341 342 343 344 345 344 347 346 348 346 344 346 345 344 344 341 341 337 332 330 325 326 331
331 333 332 334 334 334 339 341 341 339 341 343 342 342 342 342 339 341 342 341 341 343 342 344 347 345 345 346 346 345 345 346 346 345 345 344 343 343 337 334 329 326 328
329 332 334 335 338 336 338 339 340 341 341 343 342 341 341 342 340 342 341 340 340 341 343 350 348 346 345 347 346 344 343 345 344 343 344 343 342 344 342 339 335 330 325
329 331 334 335 337 339 339 341 341 340 342 343 343 341 341 342 343 342 342 339 339 340 343 343 342 342 346 350 349 344 343 340 337 341 341 342 341 342 344 343 339 334 330
327 330 334 336 337 339 342 342 343 341 343 342 343 342 341 341 343 342 341 341 342 341 341 342 341 345 346 349 346 344 345 341 339 339 341 342 343 342 342 342 341 338 335
328 330 334 335 335 336 341 342 344 342 343 341 341 343 343 342 341 342 341 341 340 343 342 346 343 345 345 345 343 343 346 343 342 342 342 343 345 343 341 341 339 339 338
332 333 334 334 335 334 338 340 342 337 339 341 341 341 341 340 342 342 342 343 341 344 343 343 344 344 345 345 344 344 343 344 344 345 343 342 342 340 345 340 339 340 341
331 332 333 335 333 333 332 336 339 339 340 340 339 339 340 340 342 343 342 342 344 343 343 345 345 343 345 345 344 343 343 344 346 346 345 343 343 340 342 341 339 337 336
331 330 332 333 333 333 332 334 335 336 339 339 338 335 334 334 335 339 341 343 344 343 343 341 341 341 339 337 335 339 341 344 344 346 346 344 344 343 342 343 340 338 337
329 332 332 333 333 334 332 334 333 334 337 337 335 339 336 336 334 337 338 339 341 341 341 340 335 331 331 327 329 333 338 343 344 344 346 345 343 341 336 336 337 340 338
327 330 332 332 334 334 334 333 334 334 335 335 335 338 337 334 333 338 338 337 336 339 336 333 331 327 326 325 325 331 338 341 337 337 341 344 343 341 337 334 330 330 331
328 331 332 333 335 336 336 334 333 333 334 337 337 336 336 334 334 337 337 336 336 337 333 330 328 325 322 320 321 326 339 329 326 328 331 336 335 334 336 328 325 323 322
331 331 332 333 333 335 336 334 332 335 336 336 335 336 335 334 334 335 337 336 333 332 331 330 327 324 321 317 319 327 335 325 322 321 321 325 329 322 328 326 324 322 317
330 329 330 331 331 331 336 335 334 335 334 334 335 337 336 336 336 337 334 332 329 325 323 321 321 319 320 317 316 322 333 323 320 319 319 318 316 316 320 326 324 320 318
327 327 327 326 327 330 332 332 333 329 332 333 334 333 334 332 332 331 330 328 325 322 319 317 317 315 313 315 312 316 331 324 320 318 316 314 313 311 314 322 327 323 319
326 327 325 324 326 328 329 327 326 329 330 331 330 331 331 332 330 328 327 325 324 321 318 315 313 313 312 312 311 312 316 319 317 314 313 311 308 308 310 313 313 314 314
325 326 324 323 325 326 328 325 326 328 328 328 327 327 325 326 327 327 325 322 321 319 317 315 313 312 312 312 311 311 312 314 313 312 311 309 307 308 312 313 314 314 314
324 326 325 324 323 325 326 327 327 327 327 325 320 315 312 308 306 307 308 314 320 320 319 317 314 313 313 313 313 313 313 313 311 310 308 308 307 308 308 309 311 311 311
324 325 324 324 324 325 326 327 326 326 323 322 316 309 304 303 302 301 301 303 300 302 310 315 317 313 311 310 307 308 309 309 308 308 306 304 301 300 300 301 303 304 303
318 321 323 323 323 324 324 323 324 325 322 318 313 306 303 300 300 300 300 301 299 297 297 301 306 307 303 300 300 300 302 303 305 308 302 300 299 299 299 299 299 299 300
Wind_Speed
16 13 11 10 6 5 5 6 7 7 4 2 1 1 1 1 1 2 4 5 5 4 3 1 2 3 3 2 2 2 3 2 2 3 2 2 4 3 3 4 3 5 4
14 13 11 11 10 8 7 6 7 7 5 3 1 1 2 1 2 2 3 4 4 3 3 1 1 4 3 3 2 2 2 2 1 2 2 3 3 2 1 1 2 5 3
16 16 14 14 11 11 11 10 9 8 6 6 3 3 2 2 2 2 3 4 5 2 1 3 2 2 2 1 1 1 0 1 2 2 2 1 2 2 1 1 2 3 3
7 11 16 14 14 14 11 9 8 8 6 7 3 4 4 3 3 2 2 3 4 3 3 3 1 1 1 2 1 2 2 2 2 1 2 1 2 1 5 1 2 3 2
9 11 17 17 16 13 12 11 8 6 7 7 6 5 3 2 1 1 2 2 2 4 4 2 2 1 1 3 3 2 1 2 2 2 2 1 1 2 3 3 4 1 2
8 6 8 13 13 10 10 9 9 7 6 7 7 7 6 3 2 2 3 2 2 3 3 4 2 2 2 3 3 1 2 2 2 0 1 1 1 1 1 1 2 1 4
10 10 10 13 12 13 12 10 11 8 7 7 7 8 7 6 6 3 4 5 3 2 5 4 4 3 5 5 3 1 1 2 1 1 1 2 1 2 2 3 1 1 3
13 13 14 10 14 13 13 13 11 11 8 7 7 6 7 5 4 5 4 4 4 4 3 3 3 5 5 5 2 0 1 2 0 1 1 2 1 3 3 3 3 2 2
15 14 11 9 9 9 14 16 14 11 10 8 6 7 6 7 6 5 3 3 4 3 3 5 6 4 5 4 3 2 2 2 0 1 1 1 2 1 1 2 3 4 1
9 11 13 15 12 13 12 14 14 14 11 8 8 7 7 6 6 5 6 6 4 3 3 4 6 4 4 3 5 3 2 1 1 1 3 2 0 3 1 2 2 3 3
12 10 12 13 14 7 8 9 9 9 10 9 7 7 6 6 6 6 6 6 3 5 6 5 5 4 3 2 4 5 4 4 3 3 2 4 1 2 3 2 1 2 1
9 9 9 11 9 8 7 10 7 7 5 5 5 6 5 5 6 6 7 6 6 5 6 5 5 5 5 3 4 5 4 4 4 4 3 5 3 3 2 1 1 1 1
5 7 10 11 10 8 6 7 9 9 8 6 4 6 6 6 7 7 6 6 6 6 6 5 6 6 4 4 4 4 4 5 5 4 4 5 3 3 2 2 0 1 1
4 4 8 9 9 7 5 4 5 7 9 8 4 4 6 7 6 6 5 5 6 5 5 6 6 5 3 3 3 3 4 5 5 6 4 4 4 5 3 2 2 2 2
6 7 8 9 7 5 5 4 3 4 6 8 8 4 4 4 4 4 6 6 6 6 6 4 3 2 3 2 4 5 5 4 5 5 4 2 2 4 6 4 2 1 1
4 6 8 9 9 9 8 7 6 4 6 7 6 9 6 3 1 5 7 5 5 4 4 4 5 5 2 6 6 6 4 2 4 3 1 3 5 3 1 4 4 3 2
4 5 8 8 7 9 10 8 6 5 4 4 2 6 7 6 4 2 2 4 4 6 7 7 6 5 3 6 7 8 3 3 3 3 2 3 2 2 4 3 7 9 9
3 6 6 4 3 7 8 7 5 5 4 4 6 5 5 6 5 3 2 4 3 4 6 7 7 4 3 11 11 8 3 5 5 5 4 2 2 3 2 5 5 6 7
4 5 7 3 3 3 6 8 9 4 5 4 3 4 5 5 5 5 4 3 4 5 5 5 5 4 4 10 9 4 5 5 5 5 6 5 4 7 3 5 6 7 8
8 8 7 5 8 7 6 5 5 9 7 5 3 5 5 4 6 6 6 4 5 6 5 6 5 6 3 10 10 4 5 4 3 3 5 11 7 9 6 6 6 6 3
10 7 8 5 5 5 7 8 6 6 6 6 7 7 7 7 7 6 6 7 8 7 6 7 5 6 6 6 11 6 2 4 3 3 3 4 9 9 6 5 4 5 7
8 7 6 5 5 6 7 8 8 5 7 8 8 8 9 7 6 9 7 7 7 8 6 7 6 5 6 13 10 11 9 8 5 4 4 6 11 13 12 11 13 15 10
7 6 5 6 6 6 7 9 4 6 6 9 9 9 9 8 7 7 6 5 4 5 4 5 5 4 3 4 10 11 11 11 7 4 6 7 10 11 12 14 12 9 5
6 6 5 5 5 5 5 5 5 6 9 9 9 7 8 7 8 6 5 4 3 4 3 3 3 2 3 3 4 5 5 8 7 7 7 8 9 12 8 7 7 5 5
6 5 5 4 5 4 4 4 5 7 8 8 7 7 5 6 7 7 4 3 3 2 2 3 3 4 3 1 3 4 4 4 4 3 3 4 4 6 5 5 4 4 4
4 5 5 5 4 4 4 4 5 6 7 7 5 5 5 4 4 5 5 11 9 10 10 8 4 2 5 5 5 7 8 5 3 4 3 3 4 4 4 4 4 4 5
Wind_Direction
204 203 201 180 174 197 232 206 174 201 165 124 140 276 229 146 208 240 209 224 207 209 96 29 96 90 69 11 346 278 129 69 214 127 311 327 32 19 5 344 352 24 33
188 197 195 190 178 201 217 225 208 190 186 155 155 191 141 218 151 239 250 253 266 199 126 180 222 95 62 345 344 321 23 118 248 89 62 342 332 306 120 280 28 42 2
187 184 186 192 182 197 208 211 212 193 182 144 156 83 45 37 116 194 233 232 234 301 240 185 220 109 124 277 211 210 214 8 75 158 136 18 257 308 146 342 54 48 27
151 189 186 187 192 200 206 207 214 183 181 163 173 148 173 180 236 173 229 239 205 240 220 180 113 34 113 249 68 230 214 179 118 203 105 151 200 123 340 18 354 44 319
175 178 189 193 198 188 199 203 197 198 171 165 184 174 160 212 264 210 189 248 274 216 230 162 143 297 242 273 248 191 97 77 150 177 173 152 127 79 119 308 335 347 4
172 161 189 197 186 177 186 190 183 189 175 175 180 169 177 201 219 267 183 222 252 258 211 222 249 259 285 273 255 323 50 83 94 305 113 139 146 147 143 79 306 279 294
167 173 182 188 177 164 175 179 180 182 193 192 185 174 189 191 212 237 210 180 210 247 248 212 198 231 239 252 249 332 2 339 174 169 220 205 163 147 155 128 269 329 301
182 185 182 182 176 175 168 172 200 184 194 197 199 189 176 186 204 207 186 201 206 216 249 246 208 231 241 240 256 256 319 344 75 320 242 248 189 172 179 166 146 314 294
184 180 169 177 152 196 187 181 184 201 187 206 183 194 187 183 198 212 195 201 225 232 206 225 193 201 244 242 234 259 267 161 136 347 87 281 311 277 174 203 179 176 227
208 187 168 179 186 201 196 189 181 189 189 185 197 197 196 204 188 183 192 210 216 199 222 203 222 213 249 238 189 213 247 331 300 261 306 315 272 300 229 153 184 175 163
200 181 184 169 173 162 178 184 182 171 186 180 189 198 202 199 188 186 174 208 205 210 208 217 233 231 254 314 167 196 232 240 253 259 278 301 273 286 297 73 120 87 149
190 184 164 154 147 148 149 193 177 159 169 182 191 193 200 203 203 201 198 192 214 195 216 221 203 211 219 188 200 208 228 238 252 270 286 281 311 225 196 265 155 140 171
128 144 148 149 144 139 167 158 147 127 123 109 201 195 197 198 210 216 207 199 216 210 204 211 221 229 221 223 229 227 228 232 252 266 263 280 281 285 240 244 42 357 55
123 137 124 137 138 140 148 139 145 152 128 103 108 222 203 199 210 215 209 208 212 232 231 217 226 227 227 215 234 247 251 255 239 237 232 261 227 217 243 216 49 3 3
113 127 143 129 135 149 135 135 134 182 145 140 132 101 79 44 354 269 223 208 203 211 214 204 196 106 103 19 320 273 251 252 249 227 202 153 40 211 182 150 141 90 334
137 126 133 139 160 166 165 168 173 214 167 165 137 149 150 159 316 268 244 204 146 158 136 117 109 88 48 353 333 325 281 250 226 215 65 138 143 94 98 112 132 135 211
135 166 165 172 194 182 165 180 192 193 188 128 194 179 143 152 211 308 242 126 131 119 109 103 94 73 31 353 3 344 298 60 56 71 74 84 57 170 164 90 78 58 45
320 90 111 113 158 156 158 143 163 166 177 187 185 157 139 139 184 236 115 118 99 103 112 95 89 70 2 7 12 354 74 72 53 27 17 73 48 337 279 105 79 52 32
41 62 73 72 50 71 148 161 161 156 204 177 151 102 138 154 177 195 157 78 85 80 73 99 103 87 19 6 342 11 94 78 58 37 27 6 12 350 207 108 97 86 74
88 84 68 43 45 30 67 99 117 197 176 153 151 142 148 156 154 156 128 106 99 96 89 80 66 59 26 10 346 337 122 109 95 48 34 33 20 11 23 133 136 117 109
89 88 78 65 50 43 88 105 106 45 39 69 92 104 107 106 109 107 114 114 110 105 94 93 71 55 24 26 359 356 121 127 100 81 39 27 25 36 46 133 129 127 116
85 72 66 57 48 51 94 90 81 75 72 61 56 81 85 88 87 100 98 100 114 108 108 93 65 46 33 27 18 44 76 94 100 56 38 38 45 50 56 70 91 98 99
104 97 85 71 47 47 69 81 64 90 78 79 76 59 56 63 62 78 82 90 91 111 113 105 106 80 37 63 48 56 72 73 80 84 90 68 59 64 59 59 64 66 70
108 102 102 90 91 76 81 102 107 98 96 84 80 72 81 72 65 59 52 62 82 97 106 100 87 89 88 71 46 77 68 60 76 75 70 66 65 66 65 59 52 61 65
121 126 119 114 105 104 97 102 107 103 97 99 96 88 75 78 79 68 58 85 79 18 99 128 137 131 111 132 105 115 104 94 90 66 56 62 50 65 60 61 57 56 58
119 116 123 125 131 125 101 82 85 108 109 103 100 108 110 104 103 108 82 54 61 47 46 59 91 52 65 149 160 126 117 111 134 63 77 79 72 80 85 84 74 51 66